Regional Weather Roundup
Issued by NWS

Home | Current Version | Previous Version | Graphics & Text | Print | Product List | Glossary On
Versions: 1 2 3 4 5 6 7 8 9 10 11 12 13 14 15 16 17 18 19 20 21 22 23 24 25 26 27 28 29 30 31 32 33 34 35 36 37 38 39 40 41 42 43 44 45 46 47 48 49 50
000
ASUS45 KCYS 270110
RWRWY

WYOMING REGIONAL WEATHER ROUNDUP
NATIONAL WEATHER SERVICE CHEYENNE WY
700 PM MDT WED JUL 26 2017

NOTE:  "FAIR" INDICATES FEW OR NO CLOUDS BELOW 12,000 FEET
WITH NO SIGNIFICANT WEATHER AND/OR OBSTRUCTIONS TO VISIBILITY.

WYZ001-270200-
YELLOWSTONE NATIONAL PARK

CITY           SKY/WX    TMP DP  RH WIND       PRES   REMARKS
LK YELLOWSTONE   N/A     66  50  56 VRB6      30.38S
W YELLOWSTONE  NOT AVBL

$$
WYZ002>013-054>058-071-098>099-270200-
NORTHERN WYOMING

CITY           SKY/WX    TMP DP  RH WIND       PRES   REMARKS
JACKSON        MOSUNNY   73  52  46 SW6       30.26F
CODY           FAIR      81  49  32 S10       30.15F
GREYBULL       FAIR      90  47  22 NW3       30.04F
WORLAND        FAIR      80  55  42 SW7       30.07S
SHERIDAN       FAIR      83  52  34 S7        30.08F
BUFFALO        CLOUDY    79  51  37 VRB3      30.18S
GILLETTE       FAIR      80  53  39 SE16      30.15F
HULETT         FAIR      79  54  41 SE8       30.17F
NEWCASTLE      FAIR      79  43  27 S14       30.18S

$$
WYZ014>020-022>026-101>103-270200-
CENTRAL WYOMING

CITY           SKY/WX    TMP DP  RH WIND       PRES   REMARKS
BIG PINEY      FAIR      72  50  45 VRB5      30.30F
PINEDALE       FAIR      72  43  35 N6        30.31F
DUBOIS         FAIR      72  43  35 SE5       30.29F
LANDER         FAIR      75  54  47 SE5       30.20F
RIVERTON       PTSUNNY   78  51  38 W8        30.18F
CASPER         FAIR      75  57  53 E12       30.18F
DOUGLAS        FAIR      75  53  46 SE14      30.22F

$$
WYZ021-027>030-104>119-270200-
SOUTHERN WYOMING

CITY           SKY/WX    TMP DP  RH WIND       PRES   REMARKS
EVANSTON       FAIR      77  52  41 NE8       30.30F
KEMMERER         N/A     73  46  38 CALM      30.32S
FORT BRIDGER   FAIR      74  53  46 E7        30.33S
ROCK SPRINGS   FAIR      68  53  58 SE7       30.30F
RAWLINS        CLOUDY    70  52  52 NW12      30.30F
LARAMIE        LGT RAIN  61  58  90 N3        30.38R
CHEYENNE       CLOUDY    69  55  60 NE13      30.30S
TORRINGTON     CLOUDY    77  51  40 SE6       30.18S
PINE BLUFFS    FAIR      73  54  49 NE8       30.24S

$$



USA.gov is the U.S. government's official web portal to all federal, state and local government web resources and services.